[[{"header":{"parameterUnit":"m.s-1","parameterCategory":1,"la1":30.2991,"la2":30.254,"lo1":-89.0895,"lo2":-89.0444,"dy":0.0017,"dx":0.0017,"nx":28,"ny":28,"refTime":"2024-08-15T09:00:00:Z","depth":0,"parameterNumber":2,"parameterNumberName":"U-component_of_WINDS"},"data":[0,0,0,0,0,0,0,0,0,0,0,0,0,0,0,0,0,0,0,0,0,0,0,0,0,0,0,0,0,0,0,0,0,0,0,0,0,0,0,0,0,0,0,0,0,0,0,0,0,0,0,0,0,0,0,0,0,0,0.0207,0.0207,0,0.0254,0.0254,0.0255,0.0257,0.0257,0.0256,0.0256,0.0301,0.0303,0.0304,0,0,0,0,0,0,0,0,0,0,0,0,0,0.0116,0.0118,0.0207,0.0207,0.0208,0.0254,0.0254,0.0255,0.0258,0.0257,0.0256,0.0256,0.03,0.0302,0.0304,0,0,0,0,0,0,0,0,0,0,0,0,0,0.0158,0.0118,0.0207,0.0215,0.0216,0.0254,0.0254,0.0255,0.0258,0.0257,0.0256,0.0255,0.03,0.0302,0.0305,0.0336,0,0,0.0312,0.0314,0,0,0,0,0,0,0,0,0.0156,0.0162,0.0213,0.0214,0.0216,0.0249,0.0239,0.0282,0.0258,0.0242,0.0256,0.0255,0.0284,0.0288,0.0298,0.0339,0.0341,0.0313,0.0314,0.0315,0.0316,0,0,0,0,0,0,0,0.0153,0.016,0.0225,0.0214,0.0215,0.0215,0.022,0.0247,0.0267,0.0243,0.0243,0.0249,0.0285,0.0296,0.0299,0.0341,0.0313,0.0315,0.0316,0.0317,0.0409,0.041,0,0,0,0,0,0,0.0149,0.0157,0.0224,0.0227,0.0183,0.0217,0.0223,0.0239,0.0266,0.027,0.025,0.0249,0.0292,0.0296,0.0301,0.034,0.0315,0.0318,0.0319,0.0409,0.041,0.0411,0,0,0,0,0,0,0.0147,0.0155,0.0222,0.0192,0.0201,0.022,0.0238,0.024,0.0252,0.0272,0.0275,0.0258,0.0291,0.0297,0.0328,0.0341,0.0319,0.0321,0.0407,0.0409,0.041,0.0418,0,0,0,0,0,0,0.0144,0.0154,0.0167,0.0192,0.0202,0.0249,0.0239,0.0242,0.0256,0.0256,0.028,0.0283,0.0291,0.0324,0.033,0.0345,0.0323,0.0406,0.0408,0.041,0.0417,0.0419,0.0422,0,0,0,0,0,0.0141,0.0167,0.0168,0.0176,0.0219,0.025,0.0255,0.0265,0.0258,0.027,0.0283,0.0282,0.0339,0.0327,0.0334,0.0349,0.0405,0.0408,0.041,0.0415,0.0419,0.0422,0,0,0,0,0,0,0.0142,0.017,0.0172,0.0207,0.0226,0.025,0.0266,0.0268,0.0289,0.0288,0.0298,0.0303,0.0333,0.0344,0.0331,0.0381,0.0371,0.0375,0.0373,0.0377,0.0379,0.0376,0.0325,0,0,0,0,0,0.0146,0.0169,0.0193,0.0221,0.0231,0.0247,0.0261,0.0267,0.0287,0.0294,0.0309,0.0328,0.035,0.0364,0.0385,0.0418,0.0423,0.0432,0.0435,0.0437,0.044,0.0458,0.0462,0.0417,0.0417,0.0417,0,0,0.0155,0.0173,0.0187,0.0222,0.0237,0.0261,0.0254,0.0278,0.0295,0.0298,0.0328,0.0339,0.036,0.0392,0.0407,0.0402,0.0453,0.044,0.0441,0.0443,0.046,0.0464,0.0468,0.0419,0.0419,0.0418,0,0,0.0183,0.0199,0.0225,0.0241,0.0265,0.0276,0.0282,0.0306,0.0314,0.0344,0.0346,0.0366,0.0404,0.0419,0.0431,0.0465,0.0465,0.0472,0.0485,0.0503,0.0506,0.0509,0.0521,0.0525,0.0475,0.0475,0.0475,0,0.019,0.0226,0.0237,0.0262,0.0277,0.0281,0.0307,0.0321,0.0351,0.036,0.0355,0.0403,0.0417,0.0452,0.0461,0.0471,0.0477,0.0469,0.0505,0.0508,0.0511,0.0523,0.0527,0.0475,0.0475,0.0475,0.0475,0,0.0234,0.0259,0.0276,0.0306,0.0323,0.0348,0.0362,0.0377,0.0382,0.0393,0.0423,0.0441,0.0466,0.0474,0.0479,0.051,0.0507,0.0503,0.0493,0.0516,0.0527,0.0531,0.0476,0.0476,0.0476,0.0476,0,0,0.0263,0.0299,0.0305,0.0319,0.0346,0.0364,0.0389,0.0415,0.0428,0.0448,0.0468,0.05,0.0497,0.0511,0.0517,0.0533,0.0558,0.0527,0.0528,0.0532,0.0593,0.0595,0.06,0.0558,0.0559,0.056,0.0591,0,0.0294,0.0339,0.035,0.0389,0.0412,0.0416,0.0438,0.0456,0.0467,0.0487,0.0498,0.0521,0.0515,0.0524,0.0539,0.0551,0.057,0.0549,0.0576,0.0577,0.0571,0.0606,0.0608,0.0637,0.0595,0.0596,0.0597,0,0.0335,0.0358,0.0399,0.0423,0.0433,0.0452,0.0476,0.0496,0.0516,0.0523,0.0539,0.0544,0.0569,0.0558,0.0592,0.0577,0.0589,0.0597,0.0598,0.0601,0.0588,0.0609,0.0647,0.0651,0.0603,0.0603,0.0602,0,0.0352,0.0392,0.0422,0.0434,0.0462,0.0476,0.0488,0.0508,0.0523,0.0543,0.0553,0.0576,0.0588,0.0605,0.0615,0.0607,0.0649,0.0638,0.0654,0.0654,0.0662,0.0662,0.0702,0.067,0.067,0.067,0.067,0,0.0385,0.041,0.043,0.0448,0.0476,0.0488,0.0515,0.0527,0.0545,0.0565,0.057,0.0588,0.0601,0.062,0.0628,0.0655,0.0661,0.0666,0.0668,0.0666,0.0665,0.0673,0.0671,0.0671,0.0671,0.0671,0.0671,0,0.0408,0.0423,0.0456,0.0481,0.0488,0.0507,0.0528,0.0545,0.0556,0.0581,0.0588,0.0605,0.0629,0.0641,0.067,0.0675,0.0705,0.0706,0.0698,0.0699,0.0714,0.0712,0.0761,0.0767,0.0732,0.0732,0.0732,0,0.0428,0.0448,0.0475,0.049,0.0503,0.0525,0.0541,0.0553,0.0568,0.0593,0.0607,0.0632,0.0652,0.0689,0.0703,0.0725,0.0726,0.0742,0.0729,0.0726,0.0726,0.0724,0.0726,0.0744,0.0744,0.0744,0.0744,0,0.0462,0.0468,0.0491,0.0516,0.0534,0.0554,0.0573,0.0584,0.0599,0.0616,0.0641,0.0657,0.0687,0.0711,0.0734,0.0745,0.0747,0.0748,0.0753,0.0751,0.0746,0.0748,0.0704,0.0747,0.0747,0.0747,0.0746,0.0746,0.0484,0.0501,0.0524,0.0548,0.0564,0.0583,0.06,0.0614,0.0635,0.0662,0.0667,0.0693,0.0713,0.0744,0.0757,0.0777,0.0773,0.078,0.0782,0.0783,0.0784,0.0743,0.0781,0.0781,0.0781,0.0781,0.0781,0,0.0517,0.0532,0.0555,0.0583,0.0602,0.0603,0.0625,0.064,0.0664,0.0682,0.0702,0.073,0.0753,0.0769,0.0793,0.0805,0.0807,0.0811,0.081,0.0812,0.0786,0.0779,0.0809,0.0809,0.0809,0.0809,0.0809,0.0809,0.0537,0.0567,0.0576,0.0613,0.0627,0.0654,0.0666,0.0683,0.0698,0.0729,0.0749,0.076,0.0777,0.0802,0.0822,0.0826,0.0834,0.0839,0.0843,0.0817,0.0814,0.0811,0.0805,0.084,0.084,0.0868,0.0868,0.0868]},{"header":{"parameterUnit":"m.s-1","parameterCategory":1,"la1":30.2991,"la2":30.254,"lo1":-89.0895,"lo2":-89.0444,"dy":0.0017,"dx":0.0017,"nx":28,"ny":28,"refTime":"2024-08-15T09:00:00:Z","depth":0,"parameterNumber":3,"parameterNumberName":"V-component_of_WINDS"},"data":[0,0,0,0,0,0,0,0,0,0,0,0,0,0,0,0,0,0,0,0,0,0,0,0,0,0,0,0,0,0,0,0,0,0,0,0,0,0,0,0,0,0,0,0,0,0,0,0,0,0,0,0,0,0,0,0,0,0,1.4618,1.4621,0,1.4901,1.4904,1.4907,1.4981,1.4979,1.4978,1.4976,1.5269,1.5278,1.5287,0,0,0,0,0,0,0,0,0,0,0,0,0,1.4142,1.415,1.4617,1.4621,1.4625,1.49,1.4904,1.4908,1.4981,1.4979,1.4977,1.4975,1.5266,1.5277,1.5288,0,0,0,0,0,0,0,0,0,0,0,0,0,1.4379,1.4153,1.4617,1.4694,1.4704,1.4899,1.4904,1.4909,1.4982,1.4979,1.4977,1.4974,1.5262,1.5276,1.529,1.5429,0,0,1.5333,1.5339,0,0,0,0,0,0,0,0,1.4366,1.4397,1.4679,1.4689,1.4701,1.4903,1.4844,1.5083,1.4983,1.4877,1.4976,1.4973,1.5149,1.5172,1.5231,1.5443,1.5455,1.5334,1.5342,1.5349,1.5353,0,0,0,0,0,0,0,1.4349,1.4385,1.473,1.4683,1.4696,1.4715,1.4746,1.489,1.5024,1.4886,1.4892,1.4924,1.5155,1.5218,1.5239,1.5459,1.5333,1.5346,1.5355,1.536,1.5797,1.58,0,0,0,0,0,0,1.4319,1.4371,1.4721,1.4738,1.4523,1.4726,1.4761,1.4841,1.5023,1.5048,1.4926,1.4926,1.5195,1.5222,1.5249,1.5424,1.5348,1.5362,1.537,1.5794,1.5798,1.5801,0,0,0,0,0,0,1.4308,1.4349,1.4709,1.4556,1.4603,1.4737,1.4826,1.4848,1.4911,1.5053,1.5078,1.4965,1.5194,1.5229,1.5383,1.5435,1.5368,1.5381,1.5791,1.5795,1.58,1.5775,0,0,0,0,0,0,1.4294,1.4345,1.44,1.4557,1.4611,1.4838,1.483,1.4855,1.4935,1.4938,1.5097,1.5121,1.5194,1.5362,1.5397,1.5454,1.5392,1.5787,1.5793,1.5798,1.5771,1.5778,1.5783,0,0,0,0,0,1.4277,1.4382,1.4402,1.4444,1.4682,1.4841,1.4872,1.4954,1.4938,1.4994,1.5085,1.5116,1.5423,1.5377,1.5417,1.5479,1.5784,1.5791,1.5798,1.5769,1.5777,1.5783,0,0,0,0,0,0,1.423,1.4404,1.4428,1.4587,1.4698,1.4853,1.4926,1.496,1.5079,1.5078,1.5175,1.521,1.5357,1.5433,1.5378,1.5622,1.5604,1.5619,1.5567,1.5576,1.5582,1.5561,1.5404,0,0,0,0,0,1.4237,1.4351,1.4498,1.4624,1.4678,1.4792,1.4865,1.4918,1.5038,1.5085,1.5188,1.5303,1.5426,1.5505,1.5626,1.5782,1.5817,1.5844,1.5849,1.5854,1.5867,1.5954,1.5967,1.5825,1.5825,1.5824,0,0,1.4255,1.4365,1.4431,1.4617,1.471,1.4826,1.4832,1.4955,1.5042,1.5105,1.5256,1.5334,1.547,1.5624,1.5698,1.5693,1.5913,1.5863,1.5865,1.5876,1.5962,1.5976,1.5987,1.5829,1.5829,1.5828,0,0,1.4348,1.4441,1.4556,1.4648,1.4787,1.4862,1.4888,1.5038,1.5092,1.5245,1.5294,1.5398,1.5608,1.5702,1.5777,1.59,1.5933,1.5937,1.5969,1.6053,1.6064,1.6074,1.6118,1.6133,1.5949,1.5949,1.5949,0,1.4353,1.4529,1.4611,1.4732,1.4812,1.4871,1.4988,1.5073,1.5245,1.5299,1.529,1.5552,1.5648,1.5825,1.5854,1.5913,1.5947,1.5921,1.6055,1.6067,1.6078,1.6121,1.6137,1.5948,1.5948,1.5948,1.5948,0,1.4529,1.465,1.4726,1.4888,1.4977,1.5095,1.5195,1.5274,1.5318,1.5393,1.5547,1.5663,1.5807,1.5853,1.5898,1.6036,1.6029,1.6036,1.602,1.6089,1.6132,1.6149,1.5948,1.5948,1.5948,1.5948,0,0,1.4603,1.4806,1.4833,1.4906,1.5062,1.5158,1.5278,1.5418,1.5484,1.5599,1.5702,1.5876,1.5883,1.5968,1.6024,1.6097,1.6187,1.6096,1.6101,1.6109,1.6346,1.634,1.6358,1.6208,1.6211,1.6214,1.6334,0,1.4715,1.4931,1.5007,1.5185,1.5297,1.5353,1.5457,1.5564,1.5637,1.5743,1.5823,1.5945,1.5945,1.5997,1.6071,1.616,1.6236,1.6152,1.6305,1.631,1.6271,1.638,1.6375,1.6483,1.6351,1.6354,1.6356,0,1.4876,1.4992,1.518,1.532,1.537,1.5462,1.5596,1.5696,1.5818,1.5865,1.5958,1.6008,1.6135,1.6108,1.6284,1.6226,1.6292,1.6345,1.6351,1.637,1.6339,1.6403,1.652,1.6536,1.6383,1.6381,1.6379,0,1.4912,1.5114,1.5253,1.5314,1.5481,1.5544,1.5616,1.5735,1.5813,1.5929,1.5981,1.6111,1.6182,1.6281,1.6364,1.6337,1.6532,1.6513,1.6575,1.6573,1.6616,1.6613,1.6746,1.6656,1.6656,1.6656,1.6655,0,1.5031,1.5144,1.5271,1.5357,1.5485,1.557,1.5694,1.577,1.5875,1.5976,1.6032,1.6126,1.6229,1.6336,1.6401,1.6537,1.6568,1.661,1.6627,1.6607,1.6601,1.6653,1.6648,1.666,1.6659,1.6658,1.6658,0,1.5094,1.5183,1.5338,1.5481,1.552,1.5608,1.5731,1.5816,1.5889,1.6016,1.6051,1.6166,1.6295,1.6386,1.6552,1.6596,1.6742,1.6757,1.6701,1.6709,1.6767,1.676,1.694,1.6968,1.6857,1.6858,1.6859,0,1.5165,1.5253,1.5404,1.5475,1.5547,1.5661,1.574,1.5826,1.5907,1.605,1.6117,1.6249,1.636,1.6562,1.6661,1.6787,1.6807,1.6861,1.6827,1.6803,1.6809,1.6803,1.6812,1.6867,1.6867,1.6868,1.6869,0,1.5281,1.532,1.5432,1.5558,1.5651,1.5755,1.586,1.5915,1.602,1.6107,1.6238,1.6323,1.6491,1.6621,1.6757,1.6831,1.6868,1.6878,1.6899,1.6881,1.6844,1.6865,1.6716,1.6874,1.6874,1.6873,1.6873,1.6873,1.5352,1.5432,1.555,1.5672,1.5759,1.5855,1.5942,1.6024,1.6134,1.6277,1.6321,1.6456,1.6573,1.6759,1.6835,1.6942,1.694,1.6971,1.6979,1.6985,1.6985,1.6825,1.6967,1.6967,1.6967,1.6967,1.6967,0,1.5472,1.555,1.5661,1.5804,1.59,1.5922,1.6039,1.6118,1.6236,1.6341,1.6448,1.6597,1.6723,1.6829,1.6959,1.7024,1.7044,1.7056,1.7053,1.7069,1.6979,1.6948,1.7037,1.7037,1.7037,1.7037,1.7037,1.7037,1.5546,1.5683,1.5735,1.5914,1.5992,1.6124,1.6189,1.6277,1.6361,1.6525,1.6629,1.6697,1.6803,1.694,1.7056,1.7084,1.713,1.7137,1.7169,1.7084,1.7076,1.7068,1.7039,1.7146,1.7146,1.7251,1.7252,1.7252]}]]